TimeEST,TemperatureF,Dew PointF,Humidity,Sea Level PressureIn,VisibilityMPH,Wind Direction,Wind SpeedMPH,Gust SpeedMPH,PrecipitationIn,Events,Conditions,WindDirDegrees,DateUTC
12:15 AM,26.6,21.2,80,30.08,10.0,Calm,Calm,-,N/A,,Overcast,0,2013-03-04 05:15:00
12:35 AM,24.8,23.0,93,30.08,10.0,Calm,Calm,-,N/A,,Overcast,0,2013-03-04 05:35:00
1:15 AM,23.0,21.2,93,30.10,10.0,Calm,Calm,-,N/A,,Mostly Cloudy,0,2013-03-04 06:15:00
1:55 AM,23.0,19.4,86,30.11,10.0,Calm,Calm,-,N/A,,Scattered Clouds,0,2013-03-04 06:55:00
2:15 AM,21.2,19.4,93,30.11,10.0,Calm,Calm,-,N/A,,Partly Cloudy,0,2013-03-04 07:15:00
2:35 AM,19.4,17.6,93,30.11,10.0,Calm,Calm,-,N/A,,Partly Cloudy,0,2013-03-04 07:35:00
2:55 AM,19.4,17.6,93,30.11,10.0,Calm,Calm,-,N/A,,Partly Cloudy,0,2013-03-04 07:55:00
3:15 AM,19.4,17.6,93,30.11,10.0,Calm,Calm,-,N/A,,Partly Cloudy,0,2013-03-04 08:15:00
3:35 AM,19.4,17.6,93,30.12,10.0,Calm,Calm,-,N/A,,Partly Cloudy,0,2013-03-04 08:35:00
3:55 AM,17.6,17.6,100,30.12,10.0,Calm,Calm,-,N/A,,Partly Cloudy,0,2013-03-04 08:55:00
4:15 AM,17.6,15.8,93,30.12,10.0,Calm,Calm,-,N/A,,Partly Cloudy,0,2013-03-04 09:15:00
4:35 AM,17.6,15.8,93,30.12,10.0,Calm,Calm,-,N/A,,Partly Cloudy,0,2013-03-04 09:35:00
4:55 AM,17.6,15.8,93,30.13,10.0,Calm,Calm,-,N/A,,Clear,0,2013-03-04 09:55:00
5:15 AM,17.6,15.8,93,30.14,10.0,Calm,Calm,-,N/A,,Clear,0,2013-03-04 10:15:00
5:35 AM,17.6,15.8,93,30.14,10.0,Calm,Calm,-,N/A,,Clear,0,2013-03-04 10:35:00
5:55 AM,15.8,14.0,93,30.15,10.0,Calm,Calm,-,N/A,,Clear,0,2013-03-04 10:55:00
6:15 AM,17.6,15.8,93,30.16,10.0,Calm,Calm,-,N/A,,Clear,0,2013-03-04 11:15:00
6:35 AM,15.8,14.0,93,30.17,10.0,Calm,Calm,-,N/A,,Clear,0,2013-03-04 11:35:00
6:55 AM,15.8,14.0,93,30.17,10.0,Calm,Calm,-,N/A,,Clear,0,2013-03-04 11:55:00
7:15 AM,15.8,14.0,93,30.18,10.0,Calm,Calm,-,N/A,,Clear,0,2013-03-04 12:15:00
7:35 AM,17.6,15.8,93,30.18,10.0,Calm,Calm,-,N/A,,Clear,0,2013-03-04 12:35:00
7:55 AM,19.4,17.6,93,30.18,10.0,Calm,Calm,-,N/A,,Clear,0,2013-03-04 12:55:00
8:15 AM,21.2,19.4,93,30.18,10.0,Calm,Calm,-,N/A,,Clear,0,2013-03-04 13:15:00
8:35 AM,23.0,19.4,86,30.18,10.0,Calm,Calm,-,N/A,,Clear,0,2013-03-04 13:35:00
8:55 AM,24.8,19.4,80,30.18,10.0,Calm,Calm,-,N/A,,Clear,0,2013-03-04 13:55:00
9:15 AM,26.6,19.4,74,30.19,10.0,Calm,Calm,-,N/A,,Clear,0,2013-03-04 14:15:00
9:35 AM,28.4,19.4,69,30.19,10.0,Calm,Calm,-,N/A,,Clear,0,2013-03-04 14:35:00
9:55 AM,32.0,19.4,60,30.19,10.0,Calm,Calm,-,N/A,,Clear,0,2013-03-04 14:55:00
10:15 AM,32.0,19.4,60,30.18,10.0,Calm,Calm,-,N/A,,Clear,0,2013-03-04 15:15:00
10:35 AM,32.0,17.6,55,30.17,10.0,Calm,Calm,-,N/A,,Clear,0,2013-03-04 15:35:00
10:55 AM,33.8,15.8,48,30.17,10.0,West,3.5,-,N/A,,Clear,260,2013-03-04 15:55:00
11:15 AM,35.6,14.0,41,30.17,10.0,Calm,Calm,-,N/A,,Clear,0,2013-03-04 16:15:00
11:35 AM,37.4,15.8,41,30.16,10.0,Calm,Calm,-,N/A,,Clear,0,2013-03-04 16:35:00
11:55 AM,37.4,15.8,41,30.15,10.0,Calm,Calm,-,N/A,,Clear,0,2013-03-04 16:55:00
12:15 PM,37.4,14.0,38,30.15,10.0,West,4.6,-,N/A,,Clear,260,2013-03-04 17:15:00
12:35 PM,41.0,15.8,36,30.14,10.0,WNW,4.6,-,N/A,,Clear,290,2013-03-04 17:35:00
12:55 PM,41.0,15.8,36,30.13,10.0,Calm,Calm,-,N/A,,Clear,0,2013-03-04 17:55:00
1:15 PM,41.0,15.8,36,30.11,10.0,Calm,Calm,-,N/A,,Clear,0,2013-03-04 18:15:00
1:55 PM,44.6,15.8,31,30.08,10.0,Calm,Calm,-,N/A,,Clear,0,2013-03-04 18:55:00
2:15 PM,44.6,17.6,34,30.07,10.0,Calm,Calm,-,N/A,,Clear,0,2013-03-04 19:15:00
2:35 PM,46.4,17.6,32,30.06,10.0,South,3.5,-,N/A,,Clear,170,2013-03-04 19:35:00
2:55 PM,46.4,15.8,29,30.06,10.0,Calm,Calm,-,N/A,,Clear,0,2013-03-04 19:55:00
3:15 PM,46.4,15.8,29,30.06,10.0,Calm,Calm,-,N/A,,Clear,0,2013-03-04 20:15:00
3:35 PM,48.2,17.6,30,30.06,10.0,WNW,4.6,-,N/A,,Clear,290,2013-03-04 20:35:00
3:55 PM,48.2,17.6,30,30.05,10.0,West,3.5,-,N/A,,Clear,280,2013-03-04 20:55:00
4:35 PM,46.4,17.6,32,30.05,10.0,Calm,Calm,-,N/A,,Partly Cloudy,0,2013-03-04 21:35:00
4:55 PM,46.4,17.6,32,30.06,10.0,WSW,5.8,-,N/A,,Mostly Cloudy,250,2013-03-04 21:55:00
5:15 PM,46.4,15.8,29,30.06,10.0,West,3.5,-,N/A,,Mostly Cloudy,260,2013-03-04 22:15:00
5:35 PM,46.4,17.6,32,30.05,10.0,South,4.6,-,N/A,,Partly Cloudy,170,2013-03-04 22:35:00
5:55 PM,46.4,17.6,32,30.05,10.0,Calm,Calm,-,N/A,,Partly Cloudy,0,2013-03-04 22:55:00
6:15 PM,44.6,17.6,34,30.05,10.0,Calm,Calm,-,N/A,,Mostly Cloudy,0,2013-03-04 23:15:00
6:35 PM,44.6,21.2,39,30.05,10.0,Calm,Calm,-,N/A,Rain,Light Rain,0,2013-03-04 23:35:00
6:55 PM,44.6,21.2,39,30.05,10.0,Calm,Calm,-,N/A,,Overcast,0,2013-03-04 23:55:00
7:15 PM,42.8,19.4,39,30.05,10.0,Calm,Calm,-,N/A,,Mostly Cloudy,0,2013-03-05 00:15:00
7:35 PM,41.0,23.0,49,30.05,10.0,Calm,Calm,-,N/A,,Scattered Clouds,0,2013-03-05 00:35:00
7:55 PM,39.2,24.8,56,30.05,10.0,Calm,Calm,-,N/A,,Clear,0,2013-03-05 00:55:00
8:15 PM,39.2,24.8,56,30.04,10.0,Calm,Calm,-,N/A,,Partly Cloudy,0,2013-03-05 01:15:00
8:35 PM,37.4,24.8,60,30.03,10.0,Calm,Calm,-,N/A,,Mostly Cloudy,0,2013-03-05 01:35:00
8:55 PM,35.6,26.6,70,30.03,10.0,NNE,3.5,-,N/A,,Scattered Clouds,30,2013-03-05 01:55:00
9:35 PM,39.2,24.8,56,30.04,10.0,Calm,Calm,-,N/A,,Overcast,0,2013-03-05 02:35:00
9:55 PM,37.4,26.6,65,30.04,10.0,Calm,Calm,-,N/A,,Overcast,0,2013-03-05 02:55:00
10:15 PM,37.4,28.4,70,30.04,10.0,Calm,Calm,-,N/A,,Overcast,0,2013-03-05 03:15:00
10:35 PM,37.4,26.6,65,30.05,10.0,Calm,Calm,-,N/A,,Overcast,0,2013-03-05 03:35:00
10:55 PM,37.4,28.4,70,30.04,10.0,Calm,Calm,-,N/A,,Overcast,0,2013-03-05 03:55:00
11:15 PM,37.4,26.6,65,30.05,10.0,Calm,Calm,-,N/A,,Overcast,0,2013-03-05 04:15:00
11:35 PM,37.4,28.4,70,30.05,10.0,Calm,Calm,-,N/A,,Mostly Cloudy,0,2013-03-05 04:35:00
11:55 PM,37.4,28.4,70,30.05,10.0,Calm,Calm,-,N/A,,Mostly Cloudy,0,2013-03-05 04:55:00